Date String (YYYY-MM-DD hh:mm:ss) UTC,Instrument flags,Ambient pressure (hPa),Sample flow (lpm),Bypass flow (lpm),Sample temperature (°C),Ambient temperature (°C),ASC tube jacket temperature (°C),LED temperature (°C),Box temperature (°C),Sample RH (%),Span deviation,Mass concentration (μg/m³),Mass concentration (μg/m³),Mass concentration (μg/m³)
DateTimeUTC,F1_M11,P_M11,Q1_M11,Q2_M11,T1_M11,T2_M11,T3_M11,T4_M11,T5_M11,U1_M11,ZSPAN_M11,X0_M11,X2_M11,X1_M11
2021-08-22 19:00:00,,0825.1,5.01,0.00,29.7,28.9,00.0,38.7,31.6,25.8,0001.2,0013.89,0007.43,0006.84
2021-08-22 19:01:00,,0825.0,5.01,0.00,29.7,28.4,00.0,38.7,31.5,27.6,0001.3,0013.15,0007.37,0006.83
2021-08-22 19:02:00,,0825.0,5.00,0.00,29.6,26.7,00.0,38.7,31.1,27.6,0001.5,0013.14,0007.33,0006.82
2021-08-22 19:03:00,,0825.0,5.01,0.00,29.5,26.1,00.0,38.7,30.9,27.6,0001.8,0012.93,0007.31,0006.81
2021-08-22 19:04:00,,0825.0,4.98,0.00,29.5,26.4,00.0,38.6,30.9,28.3,0002.0,0012.17,0007.28,0006.80
2021-08-22 19:05:00,,0825.1,5.00,0.00,29.4,26.9,00.0,38.6,31.0,28.9,0002.2,0012.15,0007.29,0006.79
2021-08-22 19:06:00,,0825.0,5.01,0.00,29.4,27.3,00.0,38.6,31.1,28.8,0002.7,0012.19,0007.33,0006.80
2021-08-22 19:07:00,,0825.0,5.00,0.00,29.4,27.7,00.0,38.5,31.2,27.1,0002.5,0012.23,0007.35,0006.80
2021-08-22 19:08:00,,0825.1,5.00,0.00,29.5,28.0,00.0,38.5,31.3,26.3,0002.2,0012.05,0007.28,0006.78
2021-08-22 19:09:00,,0825.1,4.99,0.00,29.5,28.2,00.0,38.6,31.3,26.7,0002.2,0011.60,0007.23,0006.77
2021-08-22 19:10:00,,0825.2,4.99,0.00,29.5,28.4,00.0,38.6,31.4,27.3,0002.3,0011.70,0007.27,0006.80
2021-08-22 19:11:00,,0825.1,5.01,0.00,29.6,28.6,00.0,38.6,31.5,28.1,0002.0,0011.90,0007.32,0006.85
2021-08-22 19:12:00,,0825.1,5.00,0.00,29.6,28.8,00.0,38.6,31.5,28.1,0001.7,0011.93,0007.33,0006.88
2021-08-22 19:13:00,,0825.1,5.00,0.00,29.7,28.9,00.0,38.6,31.6,26.0,0001.5,0012.03,0007.38,0006.92
2021-08-22 19:14:00,,0825.1,5.00,0.00,29.7,28.0,00.0,38.7,31.4,23.3,0001.5,0011.94,0007.37,0006.92
2021-08-22 19:15:00,,0824.9,5.01,0.00,29.5,26.3,00.0,38.6,30.8,21.4,0001.5,0011.40,0007.36,0006.92
2021-08-22 19:16:00,,0824.8,5.00,0.00,29.4,26.0,00.0,38.6,30.7,18.7,0001.7,0011.20,0007.28,0006.86
2021-08-22 19:17:00,,0824.9,5.00,0.00,29.4,26.4,00.0,38.6,30.9,18.2,0001.7,0011.04,0007.14,0006.76
2021-08-22 19:18:00,,0824.9,5.01,0.00,29.3,26.9,00.0,38.5,31.0,18.6,0002.0,0010.88,0007.04,0006.69
2021-08-22 19:19:00,,0824.8,4.99,0.00,29.4,27.3,00.0,38.5,31.1,18.3,0002.0,0010.95,0007.00,0006.65
2021-08-22 19:20:00,,0824.9,5.01,0.00,29.4,27.7,00.0,38.5,31.2,18.1,0001.6,0011.51,0006.99,0006.61
2021-08-22 19:21:00,,0824.9,5.01,0.00,29.4,28.0,00.0,38.5,31.3,17.2,0001.1,0012.18,0006.99,0006.57
2021-08-22 19:22:00,,0824.9,4.99,0.00,29.5,28.2,00.0,38.5,31.3,17.2,0001.0,0011.65,0006.94,0006.50
2021-08-22 19:23:00,,0824.9,5.01,0.00,29.5,28.4,00.0,38.5,31.4,17.3,0001.3,0011.55,0006.86,0006.42
2021-08-22 19:24:00,,0824.9,4.98,0.00,29.6,28.6,00.0,38.5,31.4,16.6,0001.3,0011.25,0006.74,0006.31
2021-08-22 19:25:00,,0824.9,5.01,0.00,29.6,28.7,00.0,38.6,31.5,16.8,0001.6,0011.16,0006.66,0006.24
2021-08-22 19:26:00,,0824.8,5.01,0.00,29.7,28.8,00.0,38.6,31.6,17.1,0001.7,0011.12,0006.61,0006.20
2021-08-22 19:27:00,,0824.8,4.99,0.00,29.7,28.5,00.0,38.6,31.5,17.4,0001.5,0011.13,0006.62,0006.20
2021-08-22 19:28:00,,0824.8,4.99,0.00,29.6,26.7,00.0,38.6,31.0,16.6,0001.0,0011.27,0006.68,0006.23
2021-08-22 19:29:00,,0824.8,5.01,0.00,29.4,25.9,00.0,38.6,30.8,16.7,0000.7,0011.36,0006.72,0006.24
2021-08-22 19:30:00,,0824.9,4.99,0.00,29.4,26.3,00.0,38.6,30.9,16.6,0001.6,0011.25,0006.75,0006.25
2021-08-22 19:31:00,,0824.8,5.00,0.00,29.3,26.8,00.0,38.5,31.0,17.2,0001.8,0010.62,0006.75,0006.26
2021-08-22 19:32:00,,0824.8,4.99,0.00,29.3,27.2,00.0,38.5,31.0,16.4,0002.1,0009.72,0006.70,0006.25
2021-08-22 19:33:00,,0824.7,5.01,0.00,29.4,27.6,00.0,38.5,31.1,17.6,0002.4,0009.60,0006.67,0006.24
2021-08-22 19:34:00,,0824.7,5.00,0.00,29.4,27.9,00.0,38.5,31.2,17.0,0002.3,0009.75,0006.68,0006.23
2021-08-22 19:35:00,,0824.8,4.99,0.00,29.4,28.1,00.0,38.5,31.3,16.5,0002.2,0010.02,0006.69,0006.24
2021-08-22 19:36:00,,0824.7,5.00,0.00,29.5,28.3,00.0,38.5,31.4,17.4,0001.7,0010.10,0006.73,0006.26
2021-08-22 19:37:00,,0824.6,5.02,0.00,29.5,28.5,00.0,38.5,31.4,17.6,0001.1,0010.16,0006.74,0006.27
2021-08-22 19:38:00,,0824.7,4.99,0.00,29.6,28.7,00.0,38.5,31.5,16.3,0000.8,0010.54,0006.78,0006.30
2021-08-22 19:39:00,,0824.6,5.01,0.00,29.6,28.8,00.0,38.6,31.5,17.0,0000.7,0010.47,0006.78,0006.32
2021-08-22 19:40:00,,0824.6,5.00,0.00,29.7,28.7,00.0,38.6,31.5,16.5,0000.4,0010.51,0006.79,0006.34
2021-08-22 19:41:00,,0824.6,5.00,0.00,29.6,27.3,00.0,38.6,31.1,16.3,-000.2,0010.63,0006.81,0006.36
2021-08-22 19:42:00,,0824.6,5.00,0.00,29.4,25.9,00.0,38.6,30.7,16.4,-000.1,0010.60,0006.80,0006.37
2021-08-22 19:43:00,,0824.6,4.99,0.00,29.3,26.1,00.0,38.5,30.7,16.8,0000.0,0010.65,0006.80,0006.38
2021-08-22 19:44:00,,0824.7,5.01,0.00,29.3,26.5,00.0,38.5,30.8,16.2,-000.4,0010.72,0006.83,0006.39
2021-08-22 19:45:00,,0824.7,5.00,0.00,29.3,27.0,00.0,38.5,30.9,16.7,-000.9,0010.94,0006.80,0006.39
2021-08-22 19:46:00,,0824.6,4.99,0.00,29.3,27.4,00.0,38.4,31.0,17.4,-000.8,0010.79,0006.82,0006.39
2021-08-22 19:47:00,,0824.6,5.01,0.00,29.3,27.7,00.0,38.4,31.1,17.2,-000.7,0011.31,0006.82,0006.37
2021-08-22 19:48:00,,0824.7,5.01,0.00,29.4,28.0,00.0,38.4,31.2,16.6,-000.3,0011.56,0006.84,0006.36
2021-08-22 19:49:00,,0824.6,5.00,0.00,29.4,28.2,00.0,38.4,31.3,17.6,0000.1,0011.16,0006.78,0006.32
2021-08-22 19:50:00,,0824.6,5.00,0.00,29.5,28.4,00.0,38.5,31.3,18.5,0000.8,0011.09,0006.73,0006.28
2021-08-22 19:51:00,,0824.7,4.99,0.00,29.5,28.6,00.0,38.5,31.4,17.1,0001.3,0011.08,0006.70,0006.25
2021-08-22 19:52:00,,0824.7,5.00,0.00,29.6,28.7,00.0,38.5,31.5,17.4,0001.5,0010.95,0006.66,0006.22
2021-08-22 19:53:00,,0824.7,4.99,0.00,29.6,28.8,00.0,38.5,31.5,17.9,0001.5,0011.05,0006.67,0006.21
2021-08-22 19:54:00,,0824.7,5.02,0.00,29.6,28.0,00.0,38.6,31.3,17.7,0001.5,0011.64,0006.66,0006.20
2021-08-22 19:55:00,,0824.7,5.00,0.00,29.5,26.2,00.0,38.5,30.7,18.4,0001.6,0011.67,0006.65,0006.19
2021-08-22 19:56:00,,0824.7,4.99,0.00,29.3,26.0,00.0,38.5,30.7,18.0,0001.6,0011.47,0006.68,0006.21
2021-08-22 19:57:00,,0824.7,5.01,0.00,29.3,26.5,00.0,38.5,30.8,17.8,0001.6,0011.49,0006.70,0006.25
2021-08-22 19:58:00,,0824.7,5.00,0.00,29.3,26.9,00.0,38.5,30.9,18.4,0001.7,0011.25,0006.73,0006.30
2021-08-22 19:59:00,,0824.7,5.01,0.00,29.3,27.3,00.0,38.4,31.0,18.1,0001.4,0011.30,0006.72,0006.33
